When you browse on this site, cookies collect data to enhance your experience and personalize the content and advertising you see.
Visit our Privacy Policy to learn more. By continuing to use the site, you agree to this use of cookies and data.
  • In Hungary
  • List of Countries
  • For 7 days
  • Water Temperature
  • Weather Map
  • News
  • Weather Widgets
  • user-avatar
    Login

    Hourly Weather Puerto-Inirida

    Today, 17 November, Sunday

    Time Temperature Precipitation Wind Pressure Humidity
    00:00 +23°C° 0.6 mm 0 mps 747 mmHg 97%
    01:00 +23°C° 0 mm 0 mps 747 mmHg 97%
    02:00 +22°C° 0.4 mm 0 mps 747 mmHg 97%
    03:00 +22°C° 0.4 mm 0 mps 747 mmHg 97%
    04:00 +22°C° 0.4 mm 0 mps 747 mmHg 98%
    05:00 +23°C° 0 mm 0 mps 748 mmHg 96%
    06:00 +24°C° 0 mm 0 mps 748 mmHg 94%
    07:00 +25°C° 0 mm 0 mps 749 mmHg 93%
    08:00 +26°C° 0.6 mm 0 mps 749 mmHg 86%
    09:00 +28°C° 0.6 mm 0 mps 749 mmHg 79%
    10:00 +30°C° 0.6 mm 0 mps 749 mmHg 72%
    11:00 +31°C° 0.1 mm 0 mps 748 mmHg 67%
    12:00 +32°C° 0.1 mm 0 mps 747 mmHg 62%
    13:00 +33°C° 0.1 mm 0 mps 746 mmHg 56%
    14:00 +31°C° 0.4 mm 0 mps 745 mmHg 66%
    15:00 +30°C° 0.4 mm 0 mps 745 mmHg 75%
    16:00 +28°C° 0.4 mm 0 mps 745 mmHg 85%
    17:00 +27°C° 0.1 mm 0 mps 746 mmHg 88%
    18:00 +26°C° 0.1 mm 0 mps 746 mmHg 91%
    19:00 +24°C° 0.1 mm 0 mps 747 mmHg 93%
    20:00 +24°C° 0 mm 0 mps 747 mmHg 94%
    21:00 +24°C° 0 mm 0 mps 748 mmHg 94%
    22:00 +24°C° 0 mm 0 mps 748 mmHg 94%
    23:00 +23°C° 0 mm 0 mps 748 mmHg 95%

    Tomorrow, 18 November, Monday

    Time Temperature Precipitation Wind Pressure Humidity
    00:00 +23°C° 0 mm 0 mps 747 mmHg 95%
    01:00 +23°C° 0 mm 0 mps 747 mmHg 95%
    02:00 +23°C° 0 mm 0 mps 747 mmHg 96%
    03:00 +23°C° 0 mm 0 mps 747 mmHg 96%
    04:00 +23°C° 0 mm 0 mps 747 mmHg 96%
    05:00 +23°C° 0 mm 0 mps 747 mmHg 94%
    06:00 +24°C° 0 mm 0 mps 748 mmHg 91%
    07:00 +25°C° 0 mm 0 mps 748 mmHg 89%
    08:00 +27°C° 0.3 mm 0 mps 749 mmHg 80%
    09:00 +29°C° 0.3 mm 0 mps 749 mmHg 72%
    10:00 +31°C° 0.3 mm 0 mps 749 mmHg 64%
    11:00 +34°C° 0.1 mm 1 mps 748 mmHg 59%
    12:00 +35°C° 0.1 mm 1 mps 747 mmHg 54%
    13:00 +36°C° 0.1 mm 1 mps 746 mmHg 49%
    14:00 +35°C° 0.1 mm 1 mps 746 mmHg 55%
    15:00 +34°C° 0.1 mm 1 mps 746 mmHg 62%
    16:00 +31°C° 0.1 mm 0 mps 745 mmHg 68%
    17:00 +31°C° 0.2 mm 1 mps 746 mmHg 74%
    18:00 +29°C° 0.2 mm 1 mps 747 mmHg 81%
    19:00 +27°C° 0.2 mm 1 mps 747 mmHg 87%
    20:00 +27°C° 0 mm 1 mps 748 mmHg 89%
    21:00 +24°C° 0 mm 0 mps 748 mmHg 91%
    22:00 +24°C° 0 mm 0 mps 748 mmHg 93%
    23:00 +24°C° 0 mm 0 mps 748 mmHg 93%

    Day after tomorrow, 19 November, Tuesday

    Time Temperature Precipitation Wind Pressure Humidity
    00:00 +24°C° 0 mm 0 mps 748 mmHg 94%
    01:00 +23°C° 0 mm 0 mps 747 mmHg 94%
    02:00 +23°C° 0 mm 0 mps 748 mmHg 95%
    03:00 +23°C° 0 mm 0 mps 748 mmHg 95%
    04:00 +23°C° 0 mm 0 mps 748 mmHg 96%
    05:00 +24°C° 0 mm 0 mps 748 mmHg 93%
    06:00 +25°C° 0 mm 0 mps 749 mmHg 90%
    07:00 +26°C° 0 mm 0 mps 749 mmHg 87%
    08:00 +28°C° 0 mm 0 mps 749 mmHg 77%
    09:00 +31°C° 0 mm 0 mps 749 mmHg 67%
    10:00 +33°C° 0 mm 0 mps 749 mmHg 57%
    11:00 +33°C° 0.3 mm 0 mps 749 mmHg 60%
    12:00 +33°C° 0.3 mm 0 mps 748 mmHg 63%
    13:00 +32°C° 0.3 mm 0 mps 747 mmHg 65%
    14:00 +31°C° 0.8 mm 0 mps 746 mmHg 73%
    15:00 +32°C° 0.8 mm 1 mps 746 mmHg 80%
    16:00 +31°C° 0.8 mm 1 mps 746 mmHg 88%
    17:00 +29°C° 0.1 mm 1 mps 746 mmHg 90%
    18:00 +28°C° 0.1 mm 1 mps 747 mmHg 92%
    19:00 +27°C° 0.1 mm 1 mps 748 mmHg 94%
    20:00 +26°C° 0 mm 1 mps 748 mmHg 94%
    21:00 +26°C° 0 mm 1 mps 748 mmHg 94%
    22:00 +24°C° 0 mm 0 mps 748 mmHg 94%
    23:00 +26°C° 1.6 mm 1 mps 748 mmHg 95%

    20 November, Wednesday

    Time Temperature Precipitation Wind Pressure Humidity
    00:00 +25°C° 1.6 mm 1 mps 748 mmHg 97%
    01:00 +25°C° 1.6 mm 1 mps 748 mmHg 98%
    02:00 +25°C° 3 mm 1 mps 748 mmHg 98%
    03:00 +25°C° 3 mm 1 mps 748 mmHg 98%
    04:00 +25°C° 3 mm 1 mps 748 mmHg 99%
    05:00 +25°C° 0.9 mm 1 mps 749 mmHg 98%
    06:00 +25°C° 0.9 mm 1 mps 749 mmHg 98%
    07:00 +25°C° 0.9 mm 2 mps 750 mmHg 98%
    08:00 +25°C° 0.1 mm 1 mps 750 mmHg 97%
    09:00 +26°C° 0.1 mm 1 mps 750 mmHg 97%
    10:00 +26°C° 0.1 mm 1 mps 750 mmHg 96%
    11:00 +27°C° 0 mm 1 mps 749 mmHg 91%
    12:00 +28°C° 0 mm 1 mps 748 mmHg 87%
    13:00 +28°C° 0 mm 1 mps 748 mmHg 82%
    14:00 +29°C° 0 mm 1 mps 747 mmHg 80%
    15:00 +27°C° 0 mm 0 mps 747 mmHg 77%
    16:00 +28°C° 0 mm 0 mps 746 mmHg 74%
    17:00 +26°C° 0 mm 0 mps 747 mmHg 79%
    18:00 +25°C° 0 mm 0 mps 747 mmHg 83%
    19:00 +24°C° 0 mm 0 mps 748 mmHg 88%
    20:00 +24°C° 0.1 mm 0 mps 748 mmHg 90%
    21:00 +23°C° 0.1 mm 0 mps 749 mmHg 91%
    22:00 +23°C° 0.1 mm 0 mps 749 mmHg 93%
    23:00 +23°C° 0.5 mm 0 mps 749 mmHg 94%

    21 November, Thursday

    Time Temperature Precipitation Wind Pressure Humidity
    00:00 +23°C° 0.5 mm 0 mps 748 mmHg 96%
    01:00 +23°C° 0.5 mm 0 mps 748 mmHg 97%
    02:00 +23°C° 0.4 mm 0 mps 748 mmHg 98%
    03:00 +23°C° 0.4 mm 0 mps 748 mmHg 98%
    04:00 +22°C° 0.4 mm 0 mps 748 mmHg 98%
    05:00 +23°C° 0.2 mm 0 mps 749 mmHg 98%
    06:00 +23°C° 0.2 mm 0 mps 750 mmHg 98%
    07:00 +23°C° 0.2 mm 0 mps 750 mmHg 97%
    08:00 +24°C° 0.3 mm 0 mps 750 mmHg 94%
    09:00 +25°C° 0.3 mm 0 mps 750 mmHg 91%
    10:00 +26°C° 0.3 mm 0 mps 750 mmHg 89%
    11:00 +27°C° 0.4 mm 0 mps 749 mmHg 81%
    12:00 +31°C° 0.4 mm 1 mps 748 mmHg 73%
    13:00 +32°C° 0.4 mm 1 mps 748 mmHg 65%
    14:00 +31°C° 0.8 mm 1 mps 747 mmHg 72%
    15:00 +30°C° 0.8 mm 1 mps 747 mmHg 80%
    16:00 +29°C° 0.8 mm 1 mps 747 mmHg 87%
    17:00 +28°C° 0.3 mm 1 mps 747 mmHg 90%
    18:00 +27°C° 0.3 mm 1 mps 748 mmHg 93%
    19:00 +24°C° 0.3 mm 0 mps 748 mmHg 96%
    20:00 +23°C° 0 mm 0 mps 748 mmHg 96%
    21:00 +23°C° 0 mm 0 mps 749 mmHg 96%
    22:00 +23°C° 0 mm 0 mps 749 mmHg 96%
    23:00 +23°C° 0 mm 0 mps 748 mmHg 96%

    22 November, Friday

    Time Temperature Precipitation Wind Pressure Humidity
    00:00 +23°C° 0 mm 0 mps 748 mmHg 96%
    01:00 +23°C° 0 mm 0 mps 748 mmHg 96%
    02:00 +23°C° 0 mm 0 mps 748 mmHg 97%
    03:00 +23°C° 0 mm 0 mps 748 mmHg 97%
    04:00 +23°C° 0 mm 0 mps 747 mmHg 97%
    05:00 +23°C° 0 mm 0 mps 748 mmHg 96%
    06:00 +24°C° 0 mm 0 mps 749 mmHg 94%
    07:00 +24°C° 0 mm 0 mps 749 mmHg 93%
    08:00 +27°C° 0.1 mm 0 mps 749 mmHg 82%
    09:00 +29°C° 0.1 mm 0 mps 749 mmHg 71%
    10:00 +32°C° 0.1 mm 0 mps 750 mmHg 60%
    11:00 +31°C° 0.6 mm 0 mps 749 mmHg 62%
    12:00 +33°C° 0.6 mm 1 mps 748 mmHg 65%
    13:00 +32°C° 0.6 mm 1 mps 747 mmHg 67%
    14:00 +32°C° 0.8 mm 1 mps 746 mmHg 73%
    15:00 +31°C° 0.8 mm 1 mps 746 mmHg 79%
    16:00 +30°C° 0.8 mm 1 mps 746 mmHg 84%
    17:00 +27°C° 1.1 mm 0 mps 746 mmHg 88%
    18:00 +25°C° 1.1 mm 0 mps 746 mmHg 92%
    19:00 +24°C° 1.1 mm 0 mps 747 mmHg 95%
    20:00 +24°C° 0.1 mm 0 mps 747 mmHg 95%
    21:00 +24°C° 0.1 mm 0 mps 748 mmHg 96%
    22:00 +24°C° 0.1 mm 0 mps 748 mmHg 96%
    23:00 +24°C° 0 mm 0 mps 748 mmHg 96%
    Show more